Regional Weather Roundup
Issued by NWS

Home | Current Version | Previous Version | Graphics & Text | Print | Product List | Glossary On
Versions: 1 2 3 4 5 6 7 8 9 10 11 12 13 14 15 16 17 18 19 20 21 22 23 24 25 26 27 28 29 30 31 32 33 34 35 36 37 38 39 40 41 42 43 44 45 46 47 48 49 50
000
ASUS43 KMKX 162321
RWRWI

WISCONSIN REGIONAL WEATHER ROUNDUP
NATIONAL WEATHER SERVICE MILWAUKEE/SULLIVAN WI
600 PM CDT WED APR 16 2014

NOTE: "FAIR" INDICATES FEW OR NO CLOUDS BELOW 12,000 FEET WITH NO
SIGNIFICANT WEATHER AND/OR OBSTRUCTIONS TO VISIBILITY.

WIZ001-002-006>008-014>016-023>028-170000-
NORTHWEST WISCONSIN

CITY           SKY/WX    TMP DP  RH WIND       PRES   REMARKS
SUPERIOR ARPT  LGT SNOW  28  27  94 NE17G28   30.15R VSB 3/4 WCI  16
ASHLAND        SNOW      27  25  92 NE21G29   30.15S VSB 1/4 WCI  13
HAYWARD        SNOW      29  27  92 NE16      30.03F VSB 1/4 WCI  17
SIREN          LGT SNOW  30  29  95 NE9G21    30.02R VSB 3/4 WCI  22
RICE LAKE      LGT SNOW  35  31  87 NE12      29.98R WCI  26
LADYSMITH      CLOUDY    37  29  74 E12G18    30.00F WCI  29
EAU CLAIRE     CLOUDY    49  30  48 S17       29.90R
MENOMONIE      DRIZZLE   42  32  68 NE12G18   29.90S
NEW RICHMOND   LGT SNOW  33  33  97 NE12G17   29.93R WCI  25
OSCEOLA        LGT SNOW  33  32  97 NE10      29.97R WCI  25
$$

WIZ003>005-009-010-017-018-170000-
NORTH CENTRAL WISCONSIN

CITY           SKY/WX    TMP DP  RH WIND       PRES   REMARKS
WOODRUFF       LGT SNOW  32  27  81 SE14      30.07F VSB 3/4 WCI  22
RHINELANDER    CLOUDY    30  25  81 E14       30.10R WCI  19
EAGLE RIVER    CLOUDY    31  24  76 SE13G18   30.10S WCI  21
LAND O LAKES   LGT SNOW  30  27  87 SE9       30.12R WCI  22
PHILLIPS       CLOUDY    32  27  82 E14G20    30.02F WCI  22
TOMAHAWK       CLOUDY    32  27  80 E7        30.05F WCI  26
MEDFORD        CLOUDY    37  28  69 E12G18    29.98F WCI  30
MERRILL        CLOUDY    36  28  73 CALM      30.05R
$$

WIZ029-030-035-036-043>047-170000-
CENTRAL WISCONSIN

CITY           SKY/WX    TMP DP  RH WIND       PRES   REMARKS
WAUSAU         CLOUDY    38  28  67 E15G26    30.03S WCI  29
MOSINEE        SUNNY     37  30  75 E13G22    30.04F WCI  29
MARSHFIELD     CLOUDY    43  30  60 SE17G28   29.98R
STEVENS POINT  CLOUDY    37  28  71 E17       30.05S WCI  27
WAUPACA        CLOUDY    43  27  52 SE21G29   30.08F
WAUTOMA        CLOUDY    47  30  51 SE17G23   30.04F
WISC RAPIDS    CLOUDY    45  30  55 SE8       30.02S
CAMP DOUGLAS   CLOUDY    48  30  49 SE17G24   29.96S
$$

WIZ011>013-019>022-031-037>040-048>050-170000-
NORTHEAST WISCONSIN

CITY           SKY/WX    TMP DP  RH WIND       PRES   REMARKS
ANTIGO         CLOUDY    32  26  80 SE23      30.07F WCI  19
STURGEON BAY   CLOUDY    34  27  75 SE15      30.23F WCI  24
GREEN BAY      CLOUDY    38  24  57 SE24G30   30.17F WCI  27
MANITOWOC      CLOUDY    38  26  62 SE16      30.21S WCI  29
APPLETON       PTSUNNY   39  25  56 SE21G28   30.12F WCI  29
CLINTONVILLE   CLOUDY    37  28  70 SE17G26   30.10F WCI  28
OSHKOSH        CLOUDY    40  25  55 SE17G31   30.10F WCI  31
$$

WIZ032>034-041-042-053>061-170000-
SOUTHWEST WISCONSIN

CITY           SKY/WX    TMP DP  RH WIND       PRES   REMARKS
LA CROSSE      CLOUDY    54  28  36 SE13G23   29.90S
SPARTA         CLOUDY    51  26  37 SE14G22   29.92F
VIROQUA        MOCLDY    49  29  46 SE20G32   29.90S
BOSCOBEL       CLOUDY    54  26  34 MISG      29.95S
PRAIRIE DU CHI CLOUDY    54  25  32 SE14G21   29.91R
PLATTEVILLE    FAIR      51  28  41 SE25G35   29.95F
$$

WIZ056-057-062-063-064-067-068-170000-
SOUTH CENTRAL WISCONSIN

CITY           SKY/WX    TMP DP  RH WIND       PRES   REMARKS
BARABOO/DELLS  CLOUDY    48  30  48 SE18G25   30.00S
LONE ROCK      CLOUDY    51  30  44 SE22G29   29.98S
WATERTOWN      CLOUDY    48  28  45 SE13G22   30.07F
MADISON        CLOUDY    50  30  46 S22G36    30.03F
MIDDLETON      MOCLDY    51  28  41 S23G30    30.02S
MONROE         CLOUDY    50  30  46 SE20G29   30.00F
JANESVILLE     CLOUDY    52  25  35 SE21G29   30.06F
$$

WIZ051-052-058>065-066-070>072-170000-
SOUTHEAST WISCONSIN

CITY           SKY/WX    TMP DP  RH WIND       PRES   REMARKS
MILWAUKEE      PTSUNNY   42  27  55 SE21G31   30.16F
WAUKESHA       PTSUNNY   45  25  45 SE22G29   30.13S
MILWAUKEE/TIMM SUNNY     43  21  42 SE18G32   30.15F
RACINE         MOSUNNY   42  27  55 SE17G28   30.17F
BURLINGTON     MOSUNNY   46  28  49 SW15      30.11S
KENOSHA        MOSUNNY   45  26  47 SE20G29   30.14F
FOND DU LAC    CLOUDY    42  26  53 SE23G29   30.11S
SHEBOYGAN      CLOUDY    38  24  57 SE14G21   30.18F WCI  30
WEST BEND      CLOUDY    39  23  52 SE13G18   30.14S WCI  32
JUNEAU         CLOUDY    45  26  47 SE18      30.08F
$$

LSZ147-162-170000-
LAKE SUPERIOR

STATION/POSITION TIME  TEMP    WIND        PRES    WAVE
                       AIR SEA DIR/SP/G            HT/PER
                 (UTC) (F)     (DEG/KT/KT) (MB)    (FT/S)
DEVILS ISLAND    2300   28      60/ 28/ 32 1023.7F
PORT WING        2200   28      40/ 20/ 23 1021.0S
SAXON HARBOR     2240           50/ 18/ 22 1020.7S
$$

LMZ867-665-643>646-170000-
LAKE MICHIGAN

STATION/POSITION TIME  TEMP    WIND        PRES    WAVE
                       AIR SEA DIR/SP/G            HT/PER
                 (UTC) (F)     (DEG/KT/KT) (MB)    (FT/S)
NORTHPORT PIER   2200   31     110/ 20/ 24 1024.7F
SISTER BAY       2223   34     150/ 12/ 19   N/A
SHEBOYGAN LAKESH 2300   38     120/ 21/ 22 1022.8F
PORT WASHINGTON  2200   38     130/ 15/ 21 1022.4F
MILWAUKEE LAKESH 2300   38     130/ 18/ 21   N/A
KENOSHA   LAKESH 2300   40     130/ 21/ 24   N/A
$$

TC  - TEMPERATURE IN CELSIUS
VSB - VISIBILITY IN STATUTE MILES
WCI - WIND CHILL INDEX
HX  - HEAT INDEX




USA.gov is the U.S. government's official web portal to all federal, state and local government web resources and services.